This is the latest recevied weather packets stored in our database for station/object KF0FSA. If no packets are shown the sender has not sent any weather packets the latest 10 day(s).
| Time | Temp. | Humidity | Pressure | Rain* | Wind** | Luminosity | Snow |
|---|---|---|---|---|---|---|---|
| 1777838756 | 22.22° C | 32% | 956.1 hPa | 0 mm | - | 808 W/m² | - |
| 1777838471 | 21.67° C | 33% | 956.3 hPa | 0 mm | - | 819 W/m² | - |
| 1777838157 | 21.67° C | 31% | 956.3 hPa | 0 mm | - | 828 W/m² | - |
| 1777837854 | 21.67° C | 30% | 956.4 hPa | 0 mm | - | 836 W/m² | - |
| 1777837554 | 21.67° C | 31% | 956.4 hPa | 0 mm | - | 846 W/m² | - |
| 1777837251 | 21.67° C | 31% | 956.4 hPa | 0 mm | - | 848 W/m² | - |
| 1777836951 | 21.67° C | 32% | 956.4 hPa | 0 mm | - | 860 W/m² | - |
| 1777836651 | 21.67° C | 33% | 956.4 hPa | 0 mm | - | 864 W/m² | - |
| 1777836352 | 21.67° C | 34% | 956.5 hPa | 0 mm | - | 870 W/m² | - |
| 1777836048 | 21.67° C | 33% | 956.5 hPa | 0 mm | - | 873 W/m² | - |
| 1777836013 | 21.11° C | 33% | 956.7 hPa | 0 mm | - | 875 W/m² | - |
| 1777835437 | 21.11° C | 33% | 956.7 hPa | 0 mm | - | 885 W/m² | - |
| 1777835136 | 21.67° C | 33% | 956.7 hPa | 0 mm | - | 889 W/m² | - |
| 1777834957 | 21.67° C | 33% | 956.8 hPa | 0 mm | - | 884 W/m² | - |
| 1777834537 | 21.11° C | 33% | 956.8 hPa | 0 mm | - | 896 W/m² | - |
| 1777834237 | 21.11° C | 33% | 956.9 hPa | 0 mm | - | 897 W/m² | - |
| 1777833937 | 21.11° C | 34% | 957 hPa | 0 mm | - | 906 W/m² | - |
| 1777833635 | 21.67° C | 34% | 956.9 hPa | 0 mm | - | 922 W/m² | - |
| 1777833332 | 21.67° C | 34% | 957 hPa | 0 mm | - | 916 W/m² | - |
| 1777833033 | 21.11° C | 31% | 957.1 hPa | 0 mm | - | 922 W/m² | - |
| 1777832853 | 21.11° C | 32% | 957.2 hPa | 0 mm | - | 913 W/m² | - |
| 1777832552 | 21.11° C | 32% | 957.3 hPa | 0 mm | - | 912 W/m² | - |
| 1777832252 | 21.11° C | 30% | 957.4 hPa | 0 mm | - | 906 W/m² | - |
| 1777831831 | 21.11° C | 33% | 957.4 hPa | 0 mm | - | 908 W/m² | - |
| 1777831532 | 21.11° C | 35% | 957.3 hPa | 0 mm | - | 911 W/m² | - |
* Rain latest hour (hover to see other rain measurements)
** Current wind speed in m/s (hover to see current wind gust speed)